TimeEDT,TemperatureF,Dew PointF,Humidity,Sea Level PressureIn,VisibilityMPH,Wind Direction,Wind SpeedMPH,Gust SpeedMPH,PrecipitationIn,Events,Conditions,WindDirDegrees,DateUTC
12:53 AM,70.0,66.9,90,29.83,10.0,SE,3.5,-,N/A,,Clear,130,2013-06-27 04:53:00
1:53 AM,68.0,66.0,93,29.82,9.0,Calm,Calm,-,N/A,,Clear,0,2013-06-27 05:53:00
2:53 AM,66.0,64.0,93,29.81,8.0,Calm,Calm,-,N/A,,Clear,0,2013-06-27 06:53:00
3:53 AM,66.9,64.9,93,29.81,5.0,Calm,Calm,-,N/A,,Mostly Cloudy,0,2013-06-27 07:53:00
4:04 AM,66.2,64.4,94,29.81,3.0,Calm,Calm,-,N/A,,Overcast,0,2013-06-27 08:04:00
4:08 AM,66.2,64.4,94,29.81,2.5,Calm,Calm,-,N/A,,Overcast,0,2013-06-27 08:08:00
4:14 AM,66.2,64.4,94,29.81,0.8,South,3.5,-,N/A,,Overcast,190,2013-06-27 08:14:00
4:36 AM,66.2,66.2,100,29.81,0.2,South,3.5,-,N/A,Fog,Fog,180,2013-06-27 08:36:00
4:53 AM,66.9,64.9,93,29.81,0.2,Calm,Calm,-,N/A,Fog,Fog,0,2013-06-27 08:53:00
5:11 AM,66.2,66.2,100,29.81,0.2,South,3.5,-,N/A,Fog,Fog,170,2013-06-27 09:11:00
5:53 AM,66.9,66.0,97,29.83,0.2,NE,3.5,-,N/A,Fog,Fog,40,2013-06-27 09:53:00
6:10 AM,66.2,66.2,100,29.83,0.2,Calm,Calm,-,N/A,Fog,Fog,0,2013-06-27 10:10:00
6:26 AM,66.2,66.2,100,29.83,0.5,South,4.6,-,N/A,Fog,Fog,170,2013-06-27 10:26:00
6:36 AM,68.0,66.2,94,29.83,0.2,South,5.8,-,N/A,Fog,Fog,170,2013-06-27 10:36:00
6:41 AM,68.0,66.2,94,29.83,0.2,SSE,6.9,-,N/A,Fog,Fog,160,2013-06-27 10:41:00
6:53 AM,66.9,66.0,97,29.83,0.2,South,4.6,-,N/A,Fog,Fog,170,2013-06-27 10:53:00
7:11 AM,66.2,66.2,100,29.84,0.5,Calm,Calm,-,N/A,Fog,Fog,0,2013-06-27 11:11:00
7:21 AM,68.0,66.2,94,29.84,0.2,Calm,Calm,-,N/A,Fog,Fog,0,2013-06-27 11:21:00
7:53 AM,69.1,66.9,93,29.83,0.2,Calm,Calm,-,N/A,Fog,Fog,0,2013-06-27 11:53:00
8:20 AM,69.8,68.0,94,29.84,0.5,NNE,4.6,-,N/A,Fog,Fog,20,2013-06-27 12:20:00
8:44 AM,69.8,68.0,94,29.84,1.0,NE,3.5,-,N/A,,Overcast,50,2013-06-27 12:44:00
8:53 AM,69.1,68.0,96,29.84,0.8,East,5.8,-,N/A,,Overcast,80,2013-06-27 12:53:00
9:06 AM,68.0,66.2,94,29.84,0.2,ENE,8.1,-,N/A,Fog,Fog,60,2013-06-27 13:06:00
9:53 AM,69.1,68.0,96,29.82,0.2,NE,10.4,-,0.00,Fog,Fog,50,2013-06-27 13:53:00
10:18 AM,69.8,68.0,94,29.82,0.8,NE,10.4,-,N/A,,Overcast,50,2013-06-27 14:18:00
10:26 AM,68.0,66.2,94,29.82,2.0,ENE,11.5,-,N/A,,Overcast,60,2013-06-27 14:26:00
10:53 AM,68.0,66.9,96,29.82,2.5,ENE,10.4,-,N/A,,Overcast,60,2013-06-27 14:53:00
11:00 AM,69.8,66.2,88,29.82,4.0,ENE,12.7,-,N/A,,Overcast,60,2013-06-27 15:00:00
11:53 AM,70.0,66.0,87,29.82,9.0,East,9.2,-,N/A,,Overcast,100,2013-06-27 15:53:00
12:53 PM,69.1,66.0,90,29.81,8.0,ESE,4.6,-,N/A,,Overcast,110,2013-06-27 16:53:00
1:00 PM,69.8,66.2,88,29.80,9.0,ESE,3.5,-,N/A,,Overcast,110,2013-06-27 17:00:00
1:53 PM,71.1,66.9,87,29.79,10.0,East,6.9,-,N/A,,Overcast,80,2013-06-27 17:53:00
2:53 PM,71.1,66.9,87,29.80,10.0,Variable,3.5,-,N/A,,Overcast,0,2013-06-27 18:53:00
3:53 PM,71.1,68.0,90,29.79,10.0,Variable,4.6,-,N/A,,Overcast,0,2013-06-27 19:53:00
4:53 PM,72.0,68.0,87,29.78,10.0,South,3.5,-,N/A,,Overcast,190,2013-06-27 20:53:00
5:53 PM,72.0,68.0,87,29.77,10.0,SW,3.5,-,N/A,,Overcast,230,2013-06-27 21:53:00
6:53 PM,70.0,66.9,90,29.77,9.0,SSE,5.8,-,N/A,,Overcast,160,2013-06-27 22:53:00
7:06 PM,69.8,66.2,88,29.77,3.0,South,4.6,-,N/A,,Overcast,180,2013-06-27 23:06:00
7:12 PM,69.8,66.2,88,29.77,1.8,SSE,3.5,-,N/A,,Overcast,160,2013-06-27 23:12:00
7:23 PM,69.8,66.2,88,29.78,3.0,Calm,Calm,-,N/A,,Overcast,0,2013-06-27 23:23:00
7:32 PM,69.8,66.2,88,29.78,2.5,South,3.5,-,N/A,,Overcast,190,2013-06-27 23:32:00
7:53 PM,68.0,66.9,96,29.78,0.2,South,4.6,-,N/A,Fog,Fog,180,2013-06-27 23:53:00
8:29 PM,66.2,66.2,100,29.78,0.2,South,3.5,-,N/A,Fog,Fog,170,2013-06-28 00:29:00
8:53 PM,66.9,66.0,97,29.78,0.2,SSW,5.8,-,N/A,Fog,Fog,200,2013-06-28 00:53:00
9:48 PM,68.0,66.2,94,29.78,0.2,South,4.6,-,N/A,Fog,Fog,180,2013-06-28 01:48:00
9:53 PM,68.0,66.9,96,29.78,0.2,South,6.9,-,N/A,Fog,Fog,180,2013-06-28 01:53:00
10:22 PM,66.2,66.2,100,29.78,0.5,South,8.1,-,N/A,Fog,Fog,190,2013-06-28 02:22:00
10:40 PM,66.2,66.2,100,29.78,0.5,South,5.8,-,N/A,Fog,Fog,190,2013-06-28 02:40:00
10:53 PM,68.0,66.9,96,29.77,0.5,South,4.6,-,N/A,Fog,Fog,170,2013-06-28 02:53:00
11:11 PM,68.0,66.2,94,29.77,0.2,South,5.8,-,N/A,Fog,Fog,170,2013-06-28 03:11:00
11:21 PM,68.0,66.2,94,29.76,0.5,SSE,8.1,-,N/A,Fog,Fog,160,2013-06-28 03:21:00
11:29 PM,66.2,66.2,100,29.77,0.2,South,9.2,-,N/A,Fog,Fog,180,2013-06-28 03:29:00
11:40 PM,66.2,66.2,100,29.76,0.2,South,6.9,-,N/A,Fog,Fog,170,2013-06-28 03:40:00
11:53 PM,66.9,66.0,97,29.76,0.2,South,6.9,-,N/A,Fog,Fog,180,2013-06-28 03:53:00